sat.trackr.live / text

‹ back to catalog

ONEWEB-0338

NORAD 49204 · 2021-083U

PAYLOAD ACTIVE UNKNOWN

§ Identity

Operator
Country
UK
Launch date
2021-09-14
Launch site
TYMSC
Launch vehicle
Mass (kg)
RCS (m²)

Purposes: comms

External: N2YO · Heavens-Above · Gunter

§ Orbital elements

Epoch: 2026-09-19T23:08:40.748064Z

Period
109.03 min
Inclination
87.9145°
Eccentricity
0.0001934
Mean motion
13.20770449 rev/d
Perigee alt
1,180.3 km
Apogee alt
1,183.2 km
Semi-major
7,559.9 km
B*
-5.0430e-5
RAAN
255.5387°
Arg perigee
77.0294°
Mean anomaly
283.1055°
Rev number
24,932

§ Raw data

ONEWEB-03381 49204U 21083U   26262.96436051 -.00000008  00000+0 -50430-4 0  99902 49204  87.9145 255.5387 0001934  77.0294 283.1055 13.20770449249327

JSON: /api/v1/satellites/49204 · /tle

For live sub-satellite position, see the globe view (requires WebGL).

§ Visibility from observer

Set your observer location to see the next 7 days of passes ≥ 10°. The values pass through the URL so the page stays shareable.

No JS? Fill the form by hand. The geolocation button needs JavaScript.